STARLINK-3056 (49159 NORAD) Tracking and Keplerian Element Data

This shows tracking and keplerian element data for the satellite.

Feedback or suggestion? Click here.




ElementValue
Catalog49159
NameSTARLINK-3056
Epoch Orbit370
Epoch Day287.91667824
Epoch Year2021
RAAN40.2867
Inclination70.0007
Eccentricity0.0003951
Argument of Perigee286.9836
Mean Anonmoly186.2506
Mean Motion15.69765458
Decay Rate-0.00036979
L11 49159U 21082AF 21287.91667824 -.00036979 00000-0 -30910-3 0 9996
L22 49159 70.0007 40.2867 0003951 286.9836 186.2506 15.69765458 3705

Live tracking and technical data element details for STARLINK-3056 (NORAD 49159). STARLINK-3056 can be tracked NOW for your location showing map with azimuth and elevation plus other details from your city location.

Track the satellite on the map from your city or location and see movement details for azimuth, elevation, latitude, longitude, range, height, and movement on the map or in text.







IsCatalogInMostPopularTable: catalog: 49159, numindb: 4
Update: records affected: 1



GetName: 49159 STARLINK-3056

Hit Count: updated at: Sun, 17 Oct 2021 10:21:34 GMT